TimeEDT,TemperatureF,Dew PointF,Humidity,Sea Level PressureIn,VisibilityMPH,Wind Direction,Wind SpeedMPH,Gust SpeedMPH,PrecipitationIn,Events,Conditions,WindDirDegrees,DateUTC
12:53 AM,60.8,53.6,77,30.09,10.0,Calm,Calm,-,N/A,,Clear,0,2012-09-26 04:53:00
1:53 AM,62.1,54.0,75,30.11,10.0,SW,5.8,-,N/A,,Clear,220,2012-09-26 05:53:00
2:53 AM,61.0,54.0,78,30.10,10.0,Calm,Calm,-,N/A,,Clear,0,2012-09-26 06:53:00
3:53 AM,59.0,55.4,88,30.11,10.0,WSW,3.5,-,N/A,,Clear,240,2012-09-26 07:53:00
4:53 AM,61.0,54.0,78,30.11,10.0,West,3.5,-,N/A,,Clear,280,2012-09-26 08:53:00
5:53 AM,61.0,54.0,78,30.12,10.0,WNW,3.5,-,N/A,,Partly Cloudy,300,2012-09-26 09:53:00
6:53 AM,55.9,54.0,93,30.12,10.0,Calm,Calm,-,N/A,,Clear,0,2012-09-26 10:53:00
7:53 AM,57.2,55.4,94,30.15,10.0,Calm,Calm,-,N/A,,Partly Cloudy,0,2012-09-26 11:53:00
8:53 AM,62.1,55.9,80,30.16,10.0,Variable,3.5,-,N/A,,Mostly Cloudy,0,2012-09-26 12:53:00
9:53 AM,64.9,57.0,75,30.16,10.0,Variable,4.6,-,N/A,,Clear,0,2012-09-26 13:53:00
10:53 AM,70.0,59.0,68,30.16,10.0,Calm,Calm,-,N/A,,Mostly Cloudy,0,2012-09-26 14:53:00
11:53 AM,73.9,57.0,55,30.15,10.0,Variable,4.6,-,N/A,,Scattered Clouds,0,2012-09-26 15:53:00
12:53 PM,77.0,57.0,50,30.14,10.0,Variable,3.5,-,N/A,,Clear,0,2012-09-26 16:53:00
1:53 PM,79.0,60.1,52,30.11,10.0,Variable,4.6,-,N/A,,Clear,0,2012-09-26 17:53:00
2:53 PM,80.1,60.1,50,30.10,10.0,Variable,5.8,-,N/A,,Clear,0,2012-09-26 18:53:00
3:53 PM,80.1,60.1,50,30.10,10.0,Calm,Calm,-,N/A,,Partly Cloudy,0,2012-09-26 19:53:00
4:53 PM,79.0,60.1,52,30.10,10.0,Variable,4.6,-,N/A,,Partly Cloudy,0,2012-09-26 20:53:00
5:53 PM,78.8,60.8,54,30.13,10.0,Calm,Calm,-,N/A,,Clear,0,2012-09-26 21:53:00
6:53 PM,75.0,59.0,57,30.11,10.0,SW,3.5,-,N/A,,Clear,220,2012-09-26 22:53:00
7:53 PM,72.0,59.0,64,30.11,10.0,Calm,Calm,-,N/A,,Clear,0,2012-09-26 23:53:00
8:53 PM,71.1,59.0,66,30.11,10.0,Calm,Calm,-,N/A,,Clear,0,2012-09-27 00:53:00
9:53 PM,69.1,60.1,73,30.11,10.0,Calm,Calm,-,N/A,,Clear,0,2012-09-27 01:53:00
10:53 PM,69.1,59.0,70,30.13,10.0,Calm,Calm,-,N/A,,Clear,0,2012-09-27 02:53:00
11:53 PM,68.0,59.0,73,30.14,10.0,Variable,3.5,-,N/A,,Clear,0,2012-09-27 03:53:00